Powrót do katalogu

STARLINK-5828

AktywnyŁącznośćVLEO
NORAD 57070·PAYLOAD·🇺🇸 United States

Wystrzelony Jun 22, 2023 z Vandenberg Space Force Base

Loading…

Następne Przeloty (najbliższe 24 godziny)

TLE

ŚwieżeSource: CelesTrak SupGP

Epoka: Sep 15, 2026, 01:46 UTC

1 57070C 23088Y   26258.07409722  .00047782  00000+0  17306-2 0  2588
2 57070  43.0005 106.6634 0001240 252.0284  97.6703 15.27556239    17

Śledź STARLINK-5828 w czasie rzeczywistym z AllMySat

Download on the App Store